User: anonymous   Login
Location: Brno
(49.2000°N, 16.6330°E)
Time: 19:34:37
(UTC+01:00)
Language:

Meteor 1-4 Rocket - Orbit

View from above orbital plane
View from above orbital plane
View from above satellite
View from above satellite

Ground track
Ground track

The orbit data is extracted from the following two-line orbital elements,

1 04394U 70037B   16036.17538633  .00002950  00000-0  10984-3 0  9990
2 04394  81.2412 238.8427 0043249  23.6476 336.6733 15.26231106488754
Epoch (UTC): 05 February 2016 04:12:33
Eccentricity: 0.0043249
inclination: 81.2412°
perigee height: 457 km
apogee height: 517 km
right ascension of ascending node: 238.8427°
argument of perigee: 23.6476°
revolutions per day: 15.26231106
mean anomaly at epoch: 336.6733°
orbit number at epoch: 48875

The dashed part of the orbit path shows where the satellite is in the earth's shadow,  

DLR